Location: Ripley
(48.3812°N, 115.4473°W)
Time: 10:22:50
(UTC+00:00)

O/OREOS (USA 219) - Pass Details

Date: 01 July 2022
Orbit: 621 x 646 km, 72.0° (Epoch: 22 May)

Event Time Altitude Azimuth Distance (km) Brightness Sun altitude
Rises 08:51:26 0° 325° (NW) 2,965 ? -17.0°
Reaches altitude 10° 08:53:55 10° 315° (NW) 2,052 ? -16.9°
Maximum altitude 08:57:54 29° 255° (WSW) 1,174 ? -16.7°
Enters shadow 08:59:02 26° 229° (SW) 1,265 ? -16.7°
